Zurück zum Katalog

YAOGAN-40 01B

AktivMilitärPO
NORAD 57832·PAYLOAD·🇨🇳 China

Gestartet Sep 10, 2023 von Taiyuan Satellite Launch Center

Loading…

Nächste Überflüge (nächste 24 Stunden)

TLE

AktuellSource: Space-Track

Epoche: Sep 14, 2026, 23:33 UTC

1 57832U 23139C   26257.98143451  .00000122  00000-0  56029-4 0  9991
2 57832  85.9918 219.6315 0001982  84.6758 275.4651 14.12462865155383

Verfolge YAOGAN-40 01B in Echtzeit mit AllMySat

Download on the App Store